Cloud_Cover
100 100 100 100 100 100 37 5 5 5 100 78 100 100 100 100 100 100 100 100 98 4 5 6 0 0 0 5 48 6 0 1 5 0 9 3 1 0 0 0 3 0 1 5 5
99 100 100 100 100 72 100 100 100 100 100 100 95 100 100 100 100 100 100 73 75 10 0 5 0 0 0 4 6 5 5 0 0 0 0 1 3 3 1 0 3 32 72 62 88
77 100 100 100 97 12 37 10 16 37 94 51 38 100 100 100 100 100 100 26 1 5 5 1 0 5 5 4 0 5 5 0 0 0 0 0 0 0 3 4 5 9 55 14 12
86 58 43 99 100 90 38 5 5 5 1 5 30 84 85 100 100 100 100 100 65 8 1 0 0 6 16 5 0 0 5 0 0 5 0 0 4 0 2 5 5 5 2 0 0
34 58 98 100 100 100 100 85 5 5 0 0 5 95 99 100 100 100 100 100 100 65 5 8 5 5 5 5 5 2 3 5 5 2 5 1 1 5 2 2 5 5 4 0 0
97 98 100 100 100 100 100 100 100 50 6 2 2 20 33 92 97 76 100 100 100 82 6 5 5 6 5 6 5 5 80 12 5 5 5 5 6 5 5 4 0 1 5 0 0
100 100 100 100 94 100 100 100 100 100 85 5 5 5 5 13 80 100 91 18 98 100 100 73 5 2 5 5 12 5 99 79 5 2 32 12 5 5 8 6 0 0 0 0 0
36 100 100 100 100 100 100 100 100 100 100 100 79 47 17 5 24 55 100 75 21 76 96 100 58 11 5 48 96 90 6 98 88 9 5 43 57 5 9 86 4 1 5 0 0
0 20 100 100 100 100 100 100 100 100 100 100 91 96 41 22 66 11 6 59 76 66 62 100 98 100 35 5 5 21 17 28 100 74 20 90 45 9 8 44 94 12 5 18 0
0 0 0 0 92 100 100 100 100 100 100 100 91 67 100 100 100 99 94 58 58 95 59 100 100 100 100 61 37 93 100 81 100 100 20 98 100 38 5 16 100 99 6 24 8
0 0 0 0 0 0 90 100 100 100 27 77 100 98 100 100 100 100 100 92 85 100 100 63 100 100 100 100 98 47 82 99 95 90 100 86 100 100 22 74 100 100 100 22 75
0 0 0 0 0 0 0 1 76 99 97 51 98 93 94 100 100 100 100 100 100 100 100 100 100 100 100 100 100 96 60 88 99 62 100 100 75 100 99 100 100 100 100 100 100
0 0 0 0 1 0 0 0 0 1 6 90 33 5 35 98 100 100 100 100 100 98 100 100 100 100 100 100 100 68 93 100 99 100 100 100 75 100 100 66 99 100 100 100 100
0 0 0 0 7 0 0 0 0 0 0 5 84 27 5 7 67 100 100 100 100 100 99 100 100 100 100 100 100 99 80 100 100 100 100 100 100 100 100 100 84 14 100 100 100
0 0 0 0 12 18 1 0 0 0 91 0 12 11 5 5 45 91 100 100 100 100 100 100 100 100 100 100 100 100 92 100 100 100 100 100 100 100 100 100 100 100 100 100 100
0 0 0 0 50 1 5 5 0 32 74 0 0 27 30 5 8 63 100 100 100 100 100 100 100 100 100 100 100 100 100 100 100 100 100 100 100 100 100 100 100 100 100 100 100
5 5 4 0 31 4 5 28 19 100 3 0 0 0 5 6 74 5 23 100 100 100 100 100 100 100 100 100 100 100 100 100 100 100 100 100 100 100 100 100 100 100 100 100 100
5 5 5 32 65 24 5 71 98 4 0 0 0 0 0 5 14 14 5 23 96 100 100 100 100 100 100 100 100 100 100 100 100 100 100 100 100 100 100 100 100 100 100 100 100
88 5 5 5 100 54 22 95 52 3 0 0 0 0 0 3 26 25 5 5 5 88 100 100 100 100 100 100 99 100 100 100 100 100 100 100 100 100 100 81 65 100 100 100 100
100 100 52 56 100 80 100 37 86 5 0 0 0 0 0 0 4 9 5 5 5 31 74 98 100 100 100 100 100 100 100 100 100 100 100 100 100 100 100 100 100 100 100 100 100
100 100 100 100 100 100 96 100 9 59 5 3 0 0 0 0 0 5 5 2 0 22 51 65 79 100 97 100 100 100 100 100 98 100 100 100 100 100 80 5 62 76 98 98 100
100 100 100 100 100 100 82 100 93 94 13 9 5 0 0 0 0 0 5 5 2 5 53 5 45 95 100 100 100 100 100 100 100 100 100 100 100 100 100 100 100 100 100 100 100
50 99 100 100 100 100 75 86 44 99 6 5 50 5 2 0 0 0 0 43 5 5 44 12 40 74 100 85 100 100 100 100 100 100 100 100 100 100 100 100 100 100 100 100 100
65 84 100 100 100 100 98 16 53 90 6 33 14 5 5 5 0 0 0 13 12 3 5 10 7 27 99 73 100 100 100 100 100 100 100 100 100 100 100 100 100 100 100 100 100
32 50 84 98 100 100 100 87 43 38 35 75 71 60 5 5 4 0 0 0 4 14 5 7 5 5 5 9 52 84 76 77 99 93 100 100 100 100 100 100 100 100 100 100 100
36 91 100 100 100 100 100 76 82 38 30 97 100 59 95 34 5 5 5 0 0 34 100 49 5 5 5 5 5 5 70 98 61 89 100 100 100 100 100 99 82 76 70 79 61
100 72 72 97 55 99 100 100 100 97 68 99 98 100 100 90 5 5 5 5 0 0 94 99 51 77 8 5 5 8 90 5 5 86 91 77 100 100 100 100 98 14 5 1 0